This is the latest recevied weather packets stored in our database for station/object IZ2WMD-13. If no packets are shown the sender has not sent any weather packets the latest 10 day(s).
| Time | Temp. | Humidity | Pressure | Rain* | Wind** | Luminosity | Snow |
|---|---|---|---|---|---|---|---|
| 1788537660 | 31.67° C | 37% | 1016.1 hPa | - | - | - | - |
| 1788535858 | 33.33° C | 29% | 1016.1 hPa | - | - | - | - |
| 1788534057 | 33.89° C | 33% | 1016.4 hPa | - | - | - | - |
| 1788532255 | 34.44° C | 32% | 1016.6 hPa | - | - | - | - |
| 1788530454 | 34.44° C | 32% | 1016.7 hPa | - | - | - | - |
| 1788528653 | 34.44° C | 33% | 1016.9 hPa | - | - | - | - |
| 1788526851 | 34.44° C | 33% | 1017.3 hPa | - | - | - | - |
| 1788525050 | 33.33° C | 35% | 1017.7 hPa | - | - | - | - |
| 1788523249 | 33.33° C | 32% | 1017.9 hPa | - | - | - | - |
| 1788521447 | 32.78° C | 33% | 1018.1 hPa | - | - | - | - |
| 1788519646 | 32.22° C | 34% | 1018.6 hPa | - | - | - | - |
| 1788517845 | 32.22° C | 36% | 1018.8 hPa | - | - | - | - |
| 1788516043 | 31.11° C | 37% | 1019.1 hPa | - | - | - | - |
| 1788514242 | 30° C | 40% | 1019.6 hPa | - | - | - | - |
| 1788512441 | 29.44° C | 41% | 1019.7 hPa | - | - | - | - |
| 1788510639 | 28.89° C | 44% | 1019.5 hPa | - | - | - | - |
| 1788508838 | 26.67° C | 45% | 1019.7 hPa | - | - | - | - |
| 1788507036 | 25.56° C | 50% | 1019.7 hPa | - | - | - | - |
| 1788505235 | 23.33° C | 53% | 1019.7 hPa | - | - | - | - |
| 1788503438 | 21.11° C | 60% | 1020 hPa | - | - | - | - |
| 1788501633 | 18.89° C | 59% | 1020.1 hPa | - | - | - | - |
| 1788499831 | 17.22° C | 59% | 1020.2 hPa | - | - | - | - |
| 1788498030 | 16.67° C | 75% | 1020.1 hPa | - | - | - | - |
| 1788496229 | 16.67° C | 84% | 1020 hPa | - | - | - | - |
| 1788494427 | 17.22° C | 84% | 1019.8 hPa | - | - | - | - |
* Rain since midnight (hover to see other rain measurements)
** Current wind speed in m/s (hover to see current wind gust speed)